User: anonymous
Location: Goheenville
(40.9070°N, 79.3720°W)
Time: 04:05:28
(UTC-04:00)
Language:

Cosmos 1633 - Orbit

View from above orbital plane
View from above orbital plane
View from above satellite
View from above satellite

Ground track
Ground track

The orbit data is extracted from the following two-line orbital elements,

1 15592U 85020A   14264.09612580  .00006832  00000-0  31958-3 0  5562
2 15592 082.5395 236.4897 0019658 097.8473 029.3956 15.19414571611844
Epoch (UTC): 21 September 2014 02:18:25
Eccentricity: 0.0019658
inclination: 82.5395°
perigee height: 494 km
apogee height: 521 km
right ascension of ascending node: 236.4897°
argument of perigee: 97.8473°
revolutions per day: 15.19414571
mean anomaly at epoch: 29.3956°
orbit number at epoch: 61184

The dashed part of the orbit path shows where the satellite is in the earth's shadow,  

DLR